Regional Weather Roundup
Issued by NWS Little Rock, AR

Home | Current Version | Previous Version | Text Only | Print | Product List | Glossary On
Versions: 1 2 3 4 5 6 7 8 9 10 11 12 13 14 15 16 17 18 19 20 21 22 23 24 25 26 27 28 29 30 31 32 33 34 35 36 37 38 39 40 41 42 43 44 45 46 47
000
ASUS44 KLZK 302305
RWRLZK

WEATHER ROUNDUP FOR ARKANSAS
NATIONAL WEATHER SERVICE LITTLE ROCK AR
600 PM CDT MON MAR 30 2015

NOTE: "FAIR" INDICATES FEW OR NO CLOUDS BELOW 12,000 FEET WITH NO
SIGNIFICANT WEATHER AND/OR OBSTRUCTIONS TO VISIBILITY.

ARZ001-003-010-029-310000-
NORTHWEST ARKANSAS

CITY           SKY/WX    TMP DP  RH WIND       PRES   REMARKS
FAYETTEVILLE   SUNNY     71  43  36 S10       30.05F
FORT SMITH     SUNNY     77  44  30 NE8       30.03F
HARRISON       SUNNY     73  36  25 S7        30.05F
BENTONVILLE    SUNNY     72  37  28 W9        30.06F
ROGERS         SUNNY     72  39  30 S10       30.06F
SILOAM SPGS    SUNNY     73  37  27 S13       30.06F
HIGHFILL       SUNNY     72  38  29 SW10      30.05F
SPRINGDALE     SUNNY     72  37  28 SW7       30.07F
$$

ARZ004-005-016-310000-
NORTH CENTRAL ARKANSAS

CITY           SKY/WX    TMP DP  RH WIND       PRES   REMARKS
BATESVILLE     SUNNY     70  43  37 E12       30.09F
FLIPPIN        SUNNY     73  34  23 S5        30.04F
MTN HOME       SUNNY     72  31  22 SW6       30.04F
$$

ARZ040-041-310000-
WEST CENTRAL ARKANSAS

CITY           SKY/WX    TMP DP  RH WIND       PRES   REMARKS
MENA           SUNNY     79  52  38 S5        30.06F
MOUNT IDA      SUNNY     77  49  37 VRB3      30.04F
$$

ARZ009-017-025-026-028-310000-
NORTHEAST ARKANSAS

CITY           SKY/WX    TMP DP  RH WIND       PRES   REMARKS
CORNING          N/A     66  41  39 SW9       30.11F
JONESBORO      SUNNY     65  38  36 S6        30.11F
NEWPORT        SUNNY     69  42  37 SE6       30.11F
BLYTHEVILLE    SUNNY     67  37  33 SW5       30.12F
$$

ARZ022-023-033-042-044-310000-
CENTRAL ARKANSAS

CITY           SKY/WX    TMP DP  RH WIND       PRES   REMARKS
LITTLE ROCK    MOSUNNY   73  47  39 E12       30.09F
N LITTLE ROCK  MOSUNNY   72  51  48 SE8       30.09F
JACKSONVILLE   SUNNY     73  49  42 SE6       30.08F
SEARCY         SUNNY     71  48  43 S8        30.11S
HOT SPRINGS    SUNNY     76  49  38 SW7       30.07F
RUSSELLVILLE   SUNNY     75  47  36 VRB5      30.05F
CLINTON        FAIR      73  45  35 SW8       30.09F
$$

ARZ036-310000-
EAST ARKANSAS

CITY           SKY/WX    TMP DP  RH WIND       PRES   REMARKS
WEST MEMPHIS   SUNNY     69  40  34 SW6       30.10F
$$

ARZ050-053-066-070-073-310000-
SOUTHWEST ARKANSAS

CITY           SKY/WX    TMP DP  RH WIND       PRES   REMARKS
ARKADELPHIA    FAIR      77  57  49 S6        30.08F
CAMDEN         PTSUNNY   75  52  43 MISG      30.08F
TEXARKANA      CLOUDY    73  62  68 S6        30.09F
EL DORADO      CLOUDY    73  60  63 S7        30.10F
DE QUEEN       CLOUDY    74  60  61 S6        30.05F
$$

ARZ056-057-069-310000-
SOUTHEAST ARKANSAS

CITY           SKY/WX    TMP DP  RH WIND       PRES   REMARKS
PINE BLUFF     SUNNY     73  51  46 SE7       30.10F
STUTTGART      SUNNY     70  48  46 SE5       30.11F
MONTICELLO     MOSUNNY   76  50  40 E5        30.09F

$$




USA.gov is the U.S. government's official web portal to all federal, state and local government web resources and services.